Track COSMOS 1413 (GLONASS) now! COSMOS 1413 (GLONASS) is classified as:
1 13603U 82100A 21022.78316753 -.00000009 00000-0 00000-0 0 9991 2 13603 64.0556 135.5363 0007051 18.8657 50.4627 2.13866836299013